This is the latest recevied weather packets stored in our database for station/object OK2ILA-1. If no packets are shown the sender has not sent any weather packets the latest 10 day(s).
| Time | Temp. | Humidity | Pressure | Rain* | Wind** | Luminosity | Snow |
|---|---|---|---|---|---|---|---|
| 1788423904 | 22.22° C | 100% | 1021.3 hPa | 0 mm | - | - | - |
| 1788423183 | 21.67° C | 100% | 1021.3 hPa | 0 mm | - | - | - |
| 1788422463 | 21.67° C | 100% | 1021.4 hPa | 0 mm | - | - | - |
| 1788421742 | 21.67° C | 100% | 1021.4 hPa | 0 mm | - | - | - |
| 1788421021 | 21.11° C | 100% | 1021.3 hPa | 0 mm | - | - | - |
| 1788420301 | 20° C | 100% | 1021.4 hPa | 0 mm | - | - | - |
| 1788419580 | 19.44° C | 100% | 1021.3 hPa | 0 mm | - | - | - |
| 1788418859 | 18.33° C | 100% | 1021.4 hPa | 0 mm | - | - | - |
| 1788418139 | 17.22° C | 100% | 1021.4 hPa | 0 mm | - | - | - |
| 1788417418 | 16.67° C | 100% | 1021.5 hPa | 0 mm | - | - | - |
| 1788416697 | 16.11° C | 100% | 1021.4 hPa | 0 mm | - | - | - |
| 1788415977 | 15.56° C | 100% | 1021.6 hPa | 0 mm | - | - | - |
| 1788415256 | 14.44° C | 100% | 1021.8 hPa | 0 mm | - | - | - |
| 1788414535 | 13.89° C | 100% | 1021.8 hPa | 0 mm | - | - | - |
| 1788413815 | 13.89° C | 100% | 1021.9 hPa | 0 mm | - | - | - |
| 1788413094 | 13.89° C | 100% | 1021.8 hPa | 0 mm | - | - | - |
| 1788412373 | 13.33° C | 100% | 1021.8 hPa | 0 mm | - | - | - |
| 1788411652 | 13.33° C | 100% | 1021.8 hPa | 0 mm | - | - | - |
| 1788410932 | 13.33° C | 100% | 1021.6 hPa | 0 mm | - | - | - |
| 1788410211 | 13.33° C | 100% | 1021.5 hPa | 0 mm | - | - | - |
| 1788409490 | 13.33° C | 100% | 1021.5 hPa | 0 mm | - | - | - |
| 1788408770 | 13.89° C | 100% | 1021.5 hPa | 0 mm | - | - | - |
| 1788408049 | 13.89° C | 100% | 1021.6 hPa | 0 mm | - | - | - |
| 1788407328 | 13.89° C | 100% | 1021.6 hPa | 0 mm | - | - | - |
| 1788406608 | 14.44° C | 100% | 1021.6 hPa | 0 mm | - | - | - |
* Rain latest hour (hover to see other rain measurements)
** Current wind speed in m/s (hover to see current wind gust speed)